Location: Mohawk View
(42.7837°N, 73.7885°W)
Time: 12:14:19
(UTC+00:00)

Resurs 1-4 Rocket - Pass Details

Date: 17 June 2021
Orbit: 800 x 813 km, 98.6° (Epoch: 30 July)

Event Time Altitude Azimuth Distance (km) Brightness Sun altitude
Rises 05:52:02 0° 21° (NNE) 3,341 6.8 -22.6°
Reaches altitude 10° 05:54:32 10° 29° (NNE) 2,406 5.6 -22.5°
Maximum altitude 05:59:30 39° 98° (E) 1,209 3.0 -22.2°
Enters shadow 06:01:20 30° 139° (SE) 1,432 3.1 -22.1°
